Вернуться в каталог

COSMOS 514

АктивенВоенныеPO
NORAD 6148·PAYLOAD·🇷🇺 Russia

Запущен Aug 16, 1972 с Plesetsk Cosmodrome

Loading…

Ближайшие Пролёты (ближайшие 24 часа)

TLE

СвежийSource: Space-Track

Эпоха: Sep 14, 2026, 09:55 UTC

1 06148U 72062A   26257.41373345  .00000034  00000-0  17426-4 0  9999
2 06148  82.9654 229.4188 0008541 254.7951 269.5127 13.82057953725863

Отслеживайте COSMOS 514 в реальном времени с AllMySat

Download on the App Store